Location: Newark
(34.6283°N, 36.0776°E)
Time: 12:10:32
(UTC+00:00)

S-56A Canister/Altair - Pass Details

Date: 25 October 2019
Orbit: 634 x 2498 km, 38.9° (Epoch: 13 November)

Event Time Altitude Azimuth Distance (km) Brightness Sun altitude
Rises 05:39:06 0° 284° (WNW) 4,519 10.9 20.0°
Reaches altitude 10° 05:42:10 10° 275° (W) 3,792 10.6 20.5°
Maximum altitude 05:50:56 33° 217° (SW) 2,984 10.7 22.0°
Drops below altitude 10° 06:02:26 10° 161° (SSE) 4,976 12.7 24.0°
Sets 06:07:14 0° 153° (SSE) 6,108 13.1 24.8°
